WXM80 ListenWXM80 Stop

You find our weather info also at:

UK Metoffice

WeatherCloud

Weather Underground

Northeastern Weather Network

AWEKAS

Citizen Weather Observer Program (CWOP)

HAMweather, WeatherForYou, PWS Weather


Weather Underground History page Text

Daily Summary for August 10, 2017 Units:  English    Metric   Both
« Previous Day
Next Day »
Daily Weekly Monthly Yearly Custom
  High: Low: Average:
Temperature: 87.0 °F 65.0 °F 74 °F
Dew Point: 72.7 °F 61.6 °F 65.2 °F
Humidity: 95 % 48 % 75 %
Wind Speed: 6.7 mph 0.0 mph 0.6 mph
Wind Gust: 9.2 mph - -
Wind:- - ESE
Pressure: 30.20 in 30.12 in -
Precipitation: 0.00 in    
Historical Graphs
 
 
Tabular Data for August 10, 2017
Time Temperature Dew Point Pressure Wind Wind Speed Wind Gust Humidity Rainfall Rate (Hourly)
00:03 69.4 °F 64.0 °F 30.18 in SW 0.6 mph 2.0 mph 83 % 0.00 in
00:08 69.4 °F 64.0 °F 30.18 in WSW 0.5 mph 2.3 mph 83 % 0.00 in
00:13 69.4 °F 64.0 °F 30.18 in WSW 0.2 mph 1.2 mph 83 % 0.00 in
00:18 69.3 °F 63.9 °F 30.17 in SW 0.2 mph 3.5 mph 83 % 0.00 in
00:28 69.2 °F 63.5 °F 30.18 in SW 0.3 mph 1.2 mph 82 % 0.00 in
00:33 69.2 °F 63.5 °F 30.18 in SW 0.4 mph 1.2 mph 82 % 0.00 in
00:38 69.1 °F 63.0 °F 30.18 in Calm     81 % 0.00 in
00:43 69.0 °F 62.9 °F 30.18 in Calm     81 % 0.00 in
00:48 69.0 °F 62.9 °F 30.18 in Calm     81 % 0.00 in
00:53 69.0 °F 62.9 °F 30.18 in SW 0.6 mph 1.2 mph 81 % 0.00 in
00:58 68.9 °F 62.8 °F 30.18 in Calm   1.2 mph 81 % 0.00 in
01:03 68.9 °F 63.2 °F 30.18 in Calm   1.2 mph 82 % 0.00 in
01:08 68.9 °F 63.2 °F 30.18 in SW 0.3 mph 2.3 mph 82 % 0.00 in
01:14 68.8 °F 63.1 °F 30.18 in Calm   1.2 mph 82 % 0.00 in
01:18 68.8 °F 63.4 °F 30.18 in Calm     83 % 0.00 in
01:24 68.8 °F 63.4 °F 30.18 in Calm     83 % 0.00 in
01:29 68.7 °F 63.7 °F 30.18 in Calm     84 % 0.00 in
01:34 68.7 °F 63.3 °F 30.18 in Calm     83 % 0.00 in
01:39 68.6 °F 63.2 °F 30.18 in Calm     83 % 0.00 in
01:44 68.6 °F 63.6 °F 30.18 in Calm     84 % 0.00 in
01:49 68.5 °F 63.5 °F 30.18 in Calm     84 % 0.00 in
01:54 68.4 °F 63.4 °F 30.18 in Calm     84 % 0.00 in
01:59 68.3 °F 63.3 °F 30.18 in Calm     84 % 0.00 in
02:04 68.1 °F 63.1 °F 30.17 in Calm     84 % 0.00 in
02:09 68.0 °F 63.0 °F 30.17 in Calm     84 % 0.00 in
02:14 67.9 °F 62.9 °F 30.17 in SW 0.1 mph 1.2 mph 84 % 0.00 in
02:19 67.8 °F 63.1 °F 30.17 in Calm     85 % 0.00 in
02:24 67.7 °F 63.0 °F 30.18 in Calm     85 % 0.00 in
02:29 67.6 °F 63.3 °F 30.18 in Calm     86 % 0.00 in
02:34 67.5 °F 63.2 °F 30.17 in Calm     86 % 0.00 in
02:39 67.4 °F 63.4 °F 30.18 in Calm     87 % 0.00 in
02:44 67.3 °F 63.3 °F 30.18 in SW 0.1 mph 1.2 mph 87 % 0.00 in
02:49 67.2 °F 63.5 °F 30.18 in Calm   1.2 mph 88 % 0.00 in
02:54 67.2 °F 63.5 °F 30.18 in Calm     88 % 0.00 in
02:59 67.1 °F 63.4 °F 30.18 in WSW 0.6 mph 2.0 mph 88 % 0.00 in
03:04 67.1 °F 63.4 °F 30.17 in WSW 0.3 mph 1.2 mph 88 % 0.00 in
03:09 67.0 °F 63.3 °F 30.17 in Calm     88 % 0.00 in
03:14 67.0 °F 63.3 °F 30.17 in Calm   1.2 mph 88 % 0.00 in
03:19 67.0 °F 63.3 °F 30.17 in Calm     88 % 0.00 in
03:24 66.9 °F 63.2 °F 30.17 in Calm     88 % 0.00 in
03:29 66.9 °F 62.9 °F 30.17 in WSW 0.6 mph 2.3 mph 87 % 0.00 in
03:34 66.9 °F 62.9 °F 30.17 in Calm   2.3 mph 87 % 0.00 in
03:39 66.9 °F 62.9 °F 30.17 in Calm     87 % 0.00 in
03:44 66.9 °F 62.9 °F 30.17 in Calm     87 % 0.00 in
03:49 66.9 °F 62.9 °F 30.17 in Calm     87 % 0.00 in
03:54 66.9 °F 62.9 °F 30.17 in Calm     87 % 0.00 in
03:59 66.9 °F 62.9 °F 30.17 in Calm     87 % 0.00 in
04:04 66.9 °F 62.9 °F 30.17 in Calm     87 % 0.00 in
04:09 66.9 °F 62.9 °F 30.17 in Calm     87 % 0.00 in
04:15 66.9 °F 62.9 °F 30.17 in Calm     87 % 0.00 in
04:20 66.9 °F 62.9 °F 30.17 in Calm     87 % 0.00 in
04:25 66.8 °F 62.8 °F 30.17 in Calm     87 % 0.00 in
04:30 66.8 °F 62.8 °F 30.17 in Calm     87 % 0.00 in
04:35 66.7 °F 62.7 °F 30.17 in Calm   1.0 mph 87 % 0.00 in
04:40 66.6 °F 62.6 °F 30.17 in Calm   1.0 mph 87 % 0.00 in
04:45 66.6 °F 62.6 °F 30.17 in Calm     87 % 0.00 in
04:50 66.5 °F 62.5 °F 30.17 in Calm   1.2 mph 87 % 0.00 in
04:55 66.4 °F 62.4 °F 30.18 in Calm     87 % 0.00 in
05:00 66.3 °F 62.6 °F 30.17 in Calm     88 % 0.00 in
05:05 66.2 °F 62.5 °F 30.17 in Calm     88 % 0.00 in
05:10 66.1 °F 62.4 °F 30.17 in Calm     88 % 0.00 in
05:15 66.0 °F 62.3 °F 30.17 in Calm     88 % 0.00 in
05:20 65.9 °F 62.2 °F 30.17 in Calm     88 % 0.00 in
05:25 65.8 °F 62.1 °F 30.17 in Calm     88 % 0.00 in
05:30 65.7 °F 62.0 °F 30.17 in Calm     88 % 0.00 in
05:36 65.6 °F 61.9 °F 30.17 in Calm     88 % 0.00 in
05:41 65.5 °F 62.2 °F 30.17 in Calm     89 % 0.00 in
05:46 65.4 °F 62.1 °F 30.17 in Calm     89 % 0.00 in
05:51 65.4 °F 62.1 °F 30.18 in Calm     89 % 0.00 in
05:56 65.3 °F 62.3 °F 30.17 in Calm     90 % 0.00 in
06:01 65.2 °F 62.2 °F 30.18 in Calm     90 % 0.00 in
06:06 65.2 °F 62.2 °F 30.18 in Calm     90 % 0.00 in
06:11 65.1 °F 62.1 °F 30.18 in WSW 0.5 mph 2.3 mph 90 % 0.00 in
06:16 65.0 °F 62.3 °F 30.18 in WSW 0.1 mph 2.3 mph 91 % 0.00 in
06:21 65.0 °F 62.3 °F 30.18 in Calm   1.2 mph 91 % 0.00 in
06:26 65.0 °F 62.3 °F 30.18 in Calm     91 % 0.00 in
06:31 65.0 °F 62.3 °F 30.18 in Calm     91 % 0.00 in
06:36 65.0 °F 62.3 °F 30.18 in Calm     91 % 0.00 in
06:41 65.1 °F 62.7 °F 30.18 in Calm     92 % 0.00 in
06:46 65.1 °F 62.7 °F 30.18 in Calm     92 % 0.00 in
06:51 65.2 °F 62.8 °F 30.18 in Calm     92 % 0.00 in
06:56 65.2 °F 62.8 °F 30.18 in Calm     92 % 0.00 in
07:01 65.3 °F 62.9 °F 30.18 in Calm     92 % 0.00 in
07:06 65.4 °F 63.3 °F 30.18 in Calm     93 % 0.00 in
07:11 65.6 °F 63.5 °F 30.18 in Calm     93 % 0.00 in
07:16 65.8 °F 63.7 °F 30.18 in Calm     93 % 0.00 in
07:21 66.1 °F 64.3 °F 30.18 in Calm     94 % 0.00 in
07:26 66.5 °F 64.7 °F 30.18 in Calm     94 % 0.00 in
07:31 66.9 °F 65.1 °F 30.19 in Calm     94 % 0.00 in
07:36 67.3 °F 65.5 °F 30.19 in Calm     94 % 0.00 in
07:41 67.6 °F 66.1 °F 30.19 in Calm     95 % 0.00 in
07:46 67.9 °F 66.1 °F 30.19 in Calm     94 % 0.00 in
07:51 68.3 °F 66.5 °F 30.19 in Calm     94 % 0.00 in
07:56 68.6 °F 66.8 °F 30.19 in Calm     94 % 0.00 in
08:01 68.8 °F 67.0 °F 30.19 in Calm     94 % 0.00 in
08:06 69.0 °F 66.9 °F 30.19 in NNE 0.1 mph 3.5 mph 93 % 0.00 in
08:11 69.2 °F 66.8 °F 30.19 in Calm   1.2 mph 92 % 0.00 in
08:16 69.4 °F 66.7 °F 30.19 in Calm   1.2 mph 91 % 0.00 in
08:21 69.6 °F 66.9 °F 30.19 in Calm   1.2 mph 91 % 0.00 in
08:26 69.9 °F 67.2 °F 30.20 in Calm     91 % 0.00 in
08:31 70.1 °F 67.3 °F 30.20 in Calm     91 % 0.00 in
08:36 70.4 °F 67.6 °F 30.20 in Calm     91 % 0.00 in
08:41 70.6 °F 67.8 °F 30.20 in Calm     91 % 0.00 in
08:46 70.7 °F 67.6 °F 30.20 in Calm   1.2 mph 90 % 0.00 in
08:51 70.9 °F 67.8 °F 30.20 in Calm     90 % 0.00 in
08:56 71.0 °F 67.6 °F 30.20 in Calm   1.2 mph 89 % 0.00 in
09:01 71.2 °F 67.8 °F 30.20 in Calm   1.2 mph 89 % 0.00 in
09:07 71.5 °F 67.8 °F 30.20 in Calm   2.3 mph 88 % 0.00 in
09:12 71.8 °F 68.1 °F 30.20 in Calm     88 % 0.00 in
09:17 72.0 °F 67.9 °F 30.19 in East 0.5 mph 1.2 mph 87 % 0.00 in
09:22 72.3 °F 68.2 °F 30.19 in North 0.8 mph 3.5 mph 87 % 0.00 in
09:27 72.6 °F 68.5 °F 30.19 in NNE 2.2 mph 3.5 mph 87 % 0.00 in
09:32 72.8 °F 68.4 °F 30.19 in North 1.7 mph 3.5 mph 86 % 0.00 in
09:37 73.1 °F 68.3 °F 30.19 in North 3.0 mph 4.0 mph 85 % 0.00 in
09:42 73.4 °F 68.6 °F 30.19 in NNE 0.9 mph 2.3 mph 85 % 0.00 in
09:47 73.6 °F 68.5 °F 30.19 in NE 0.8 mph 2.3 mph 84 % 0.00 in
09:52 73.9 °F 68.4 °F 30.20 in ENE 1.9 mph 3.5 mph 83 % 0.00 in
09:57 74.2 °F 68.0 °F 30.20 in ENE 0.5 mph 2.3 mph 81 % 0.00 in
10:02 74.7 °F 68.8 °F 30.20 in ENE 0.1 mph 1.2 mph 82 % 0.00 in
10:07 75.2 °F 69.0 °F 30.19 in NNE 1.6 mph 3.5 mph 81 % 0.00 in
10:12 76.0 °F 69.7 °F 30.19 in NNE 1.8 mph 3.5 mph 81 % 0.00 in
10:17 76.8 °F 69.8 °F 30.19 in NNE 2.0 mph 4.0 mph 79 % 0.00 in
10:22 77.7 °F 69.5 °F 30.19 in NNE 0.3 mph 1.2 mph 76 % 0.00 in
10:27 78.5 °F 69.9 °F 30.19 in NNE 1.8 mph 3.0 mph 75 % 0.00 in
10:32 79.4 °F 70.0 °F 30.19 in NE 1.0 mph 2.3 mph 73 % 0.00 in
10:37 80.3 °F 69.6 °F 30.19 in NE 1.5 mph 2.3 mph 70 % 0.00 in
10:42 81.0 °F 70.3 °F 30.19 in ENE 0.9 mph 2.3 mph 70 % 0.00 in
10:47 81.6 °F 70.4 °F 30.18 in NE 0.9 mph 3.5 mph 69 % 0.00 in
10:52 82.2 °F 68.8 °F 30.19 in ENE 2.5 mph 3.5 mph 64 % 0.00 in
10:57 82.7 °F 69.7 °F 30.19 in ENE 0.1 mph 3.5 mph 65 % 0.00 in
11:02 83.1 °F 69.2 °F 30.18 in NE 0.6 mph 2.0 mph 63 % 0.00 in
11:07 83.4 °F 69.5 °F 30.18 in NE 1.0 mph 4.0 mph 63 % 0.00 in
11:12 83.6 °F 68.2 °F 30.18 in NNE 3.7 mph 4.6 mph 60 % 0.00 in
11:17 83.8 °F 68.9 °F 30.18 in ENE 0.6 mph 3.5 mph 61 % 0.00 in
11:22 83.6 °F 70.1 °F 30.18 in ENE 2.8 mph 3.5 mph 64 % 0.00 in
11:28 83.8 °F 70.3 °F 30.18 in NNE 2.0 mph 5.0 mph 64 % 0.00 in
11:33 84.1 °F 71.1 °F 30.18 in ENE 1.2 mph 3.5 mph 65 % 0.00 in
11:38 84.2 °F 70.2 °F 30.18 in NNE 1.7 mph 4.0 mph 63 % 0.00 in
11:43 84.5 °F 71.0 °F 30.18 in NNE 1.1 mph 2.3 mph 64 % 0.00 in
11:48 84.8 °F 70.3 °F 30.18 in NNE 0.5 mph 2.3 mph 62 % 0.00 in
11:53 85.1 °F 70.6 °F 30.18 in NNW 2.5 mph 3.5 mph 62 % 0.00 in
11:58 85.2 °F 70.2 °F 30.18 in North 1.2 mph 3.5 mph 61 % 0.00 in
12:03 85.4 °F 70.4 °F 30.18 in NNE 0.7 mph 2.3 mph 61 % 0.00 in
12:08 85.4 °F 70.4 °F 30.18 in Calm   2.3 mph 61 % 0.00 in
12:13 85.7 °F 70.7 °F 30.17 in NNE 1.2 mph 2.3 mph 61 % 0.00 in
12:18 86.3 °F 70.8 °F 30.17 in North 1.9 mph 5.0 mph 60 % 0.00 in
12:23 86.6 °F 70.6 °F 30.18 in North 1.8 mph 3.5 mph 59 % 0.00 in
12:28 86.9 °F 70.3 °F 30.18 in NNE 2.6 mph 4.6 mph 58 % 0.00 in
12:33 87.0 °F 71.4 °F 30.18 in ENE 1.7 mph 4.6 mph 60 % 0.00 in
12:38 86.3 °F 69.8 °F 30.18 in ENE 1.7 mph 3.5 mph 58 % 0.00 in
12:43 85.7 °F 70.7 °F 30.18 in NNE 1.9 mph 3.5 mph 61 % 0.00 in
12:48 85.7 °F 71.2 °F 30.18 in NNE 1.5 mph 3.5 mph 62 % 0.00 in
12:53 85.8 °F 71.3 °F 30.18 in North 2.6 mph 3.5 mph 62 % 0.00 in
12:58 85.9 °F 69.9 °F 30.17 in North 2.9 mph 5.8 mph 59 % 0.00 in
13:03 86.0 °F 71.0 °F 30.17 in ENE 1.0 mph 3.5 mph 61 % 0.00 in
13:08 86.0 °F 71.5 °F 30.17 in NE 1.4 mph 3.5 mph 62 % 0.00 in
13:13 85.8 °F 71.3 °F 30.17 in NE 1.6 mph 4.6 mph 62 % 0.00 in
13:18 85.7 °F 70.7 °F 30.17 in NNE 1.7 mph 3.5 mph 61 % 0.00 in
13:23 84.4 °F 69.5 °F 30.17 in ENE 1.5 mph 5.0 mph 61 % 0.00 in
13:28 83.4 °F 70.8 °F 30.17 in NE 0.2 mph 1.2 mph 66 % 0.00 in
13:33 82.6 °F 70.1 °F 30.17 in NE 2.0 mph 3.5 mph 66 % 0.00 in
13:38 81.9 °F 70.3 °F 30.17 in ENE 1.5 mph 5.0 mph 68 % 0.00 in
13:43 81.6 °F 70.4 °F 30.17 in NE 1.6 mph 4.6 mph 69 % 0.00 in
13:48 82.0 °F 71.2 °F 30.17 in ENE 1.7 mph 3.0 mph 70 % 0.00 in
13:53 82.6 °F 71.8 °F 30.16 in NE 1.9 mph 3.5 mph 70 % 0.00 in
13:59 83.1 °F 72.7 °F 30.17 in NE 0.1 mph 2.3 mph 71 % 0.00 in
14:04 83.5 °F 70.5 °F 30.17 in NE 1.8 mph 3.5 mph 65 % 0.00 in
14:09 83.4 °F 70.8 °F 30.17 in ENE 1.5 mph 3.5 mph 66 % 0.00 in
14:10 83.4 °F 70.8 °F 30.17 in ENE 1.1 mph 3.5 mph 66 % 0.00 in
14:15 83.7 °F 71.1 °F 30.16 in NE 1.2 mph 3.5 mph 66 % 0.00 in
14:20 83.7 °F 71.1 °F 30.16 in NE 0.3 mph 1.2 mph 66 % 0.00 in
14:25 83.8 °F 70.3 °F 30.16 in NE 1.9 mph 3.5 mph 64 % 0.00 in
14:30 83.4 °F 70.8 °F 30.16 in ENE 0.2 mph 1.0 mph 66 % 0.00 in
14:35 82.7 °F 70.2 °F 30.16 in ENE 1.2 mph 2.3 mph 66 % 0.00 in
14:40 81.9 °F 70.3 °F 30.16 in NE 0.1 mph 1.0 mph 68 % 0.00 in
14:45 81.6 °F 70.4 °F 30.16 in NE 2.3 mph 4.6 mph 69 % 0.00 in
14:50 81.8 °F 71.1 °F 30.16 in NE 1.1 mph 3.5 mph 70 % 0.00 in
14:55 81.7 °F 71.4 °F 30.15 in East 0.6 mph 2.0 mph 71 % 0.00 in
15:00 82.0 °F 70.8 °F 30.15 in ENE 0.1 mph 1.2 mph 69 % 0.00 in
15:05 82.0 °F 70.4 °F 30.15 in Calm     68 % 0.00 in
15:10 82.1 °F 70.5 °F 30.15 in SE 2.1 mph 5.0 mph 68 % 0.00 in
15:15 82.4 °F 65.1 °F 30.15 in SE 2.7 mph 8.1 mph 56 % 0.00 in
15:20 82.7 °F 65.9 °F 30.15 in SE 1.5 mph 4.0 mph 57 % 0.00 in
15:25 83.1 °F 65.8 °F 30.14 in SE 0.6 mph 2.3 mph 56 % 0.00 in
15:31 83.4 °F 64.5 °F 30.14 in SE 1.0 mph 4.0 mph 53 % 0.00 in
15:36 83.6 °F 64.1 °F 30.14 in SE 2.0 mph 9.0 mph 52 % 0.00 in
15:41 83.8 °F 64.8 °F 30.13 in SE 1.0 mph 5.0 mph 53 % 0.00 in
15:46 84.0 °F 62.2 °F 30.13 in SSE 3.0 mph 8.0 mph 48 % 0.00 in
15:50 83.9 °F 62.7 °F 30.13 in SE 2.7 mph 5.8 mph 49 % 0.00 in
15:56 84.1 °F 63.5 °F 30.13 in SE 2.0 mph 6.0 mph 50 % 0.00 in
16:01 84.2 °F 63.5 °F 30.13 in SE 0.1 mph 6.9 mph 50 % 0.00 in
16:06 84.4 °F 63.7 °F 30.13 in ESE 3.3 mph 6.9 mph 50 % 0.00 in
16:11 84.5 °F 64.4 °F 30.13 in SE 2.4 mph 8.1 mph 51 % 0.00 in
16:16 84.5 °F 63.8 °F 30.14 in SSE 2.4 mph 3.5 mph 50 % 0.00 in
16:21 84.6 °F 65.6 °F 30.14 in SE 0.3 mph 2.3 mph 53 % 0.00 in
16:26 84.8 °F 65.8 °F 30.14 in SSE 0.5 mph 3.5 mph 53 % 0.00 in
16:31 84.7 °F 62.8 °F 30.14 in SSE 1.9 mph 5.0 mph 48 % 0.00 in
16:36 84.4 °F 65.4 °F 30.14 in SSE 1.4 mph 3.5 mph 53 % 0.00 in
16:41 84.3 °F 64.2 °F 30.14 in SSE 0.3 mph 2.0 mph 51 % 0.00 in
16:46 84.0 °F 65.0 °F 30.14 in SE 0.4 mph 3.0 mph 53 % 0.00 in
16:51 83.7 °F 66.8 °F 30.14 in SSW 2.4 mph 6.9 mph 57 % 0.00 in
16:56 83.7 °F 66.3 °F 30.14 in SE 2.5 mph 4.6 mph 56 % 0.00 in
17:01 83.4 °F 66.6 °F 30.14 in SE 3.4 mph 8.1 mph 57 % 0.00 in
17:06 83.2 °F 65.9 °F 30.14 in SE 0.4 mph 3.5 mph 56 % 0.00 in
17:11 83.0 °F 65.2 °F 30.14 in SSE 3.1 mph 5.0 mph 55 % 0.00 in
17:17 82.5 °F 64.2 °F 30.13 in SE 6.7 mph 9.2 mph 54 % 0.00 in
17:22 82.1 °F 65.4 °F 30.13 in SSE 0.6 mph 2.0 mph 57 % 0.00 in
17:27 81.9 °F 64.7 °F 30.12 in Calm   2.3 mph 56 % 0.00 in
17:32 81.8 °F 65.1 °F 30.13 in Calm   1.2 mph 57 % 0.00 in
17:37 81.5 °F 65.3 °F 30.13 in South 1.5 mph 3.5 mph 58 % 0.00 in
17:42 81.2 °F 65.0 °F 30.12 in SE 0.2 mph 2.0 mph 58 % 0.00 in
17:47 81.0 °F 64.3 °F 30.12 in SE 4.1 mph 7.0 mph 57 % 0.00 in
17:52 80.6 °F 64.0 °F 30.12 in SE 1.4 mph 3.5 mph 57 % 0.00 in
17:57 80.3 °F 63.7 °F 30.13 in South 4.4 mph 6.9 mph 57 % 0.00 in
18:02 79.9 °F 63.3 °F 30.12 in SE 0.9 mph 3.5 mph 57 % 0.00 in
18:07 79.6 °F 63.5 °F 30.12 in SE 1.0 mph 4.6 mph 58 % 0.00 in
18:12 79.3 °F 63.7 °F 30.12 in SE 1.9 mph 5.0 mph 59 % 0.00 in
18:17 79.0 °F 63.9 °F 30.12 in SE 2.5 mph 3.5 mph 60 % 0.00 in
18:22 78.8 °F 63.7 °F 30.12 in SSE 0.8 mph 5.8 mph 60 % 0.00 in
18:28 78.7 °F 63.6 °F 30.12 in SSE 0.4 mph 1.2 mph 60 % 0.00 in
18:33 78.4 °F 63.8 °F 30.12 in SE 1.5 mph 3.5 mph 61 % 0.00 in
18:38 78.3 °F 63.7 °F 30.12 in SSE 1.0 mph 3.5 mph 61 % 0.00 in
18:43 78.2 °F 63.6 °F 30.13 in SE 0.3 mph 3.5 mph 61 % 0.00 in
18:48 78.1 °F 63.6 °F 30.12 in SSW 0.5 mph 2.3 mph 61 % 0.00 in
18:53 77.8 °F 63.3 °F 30.13 in South 0.4 mph 2.3 mph 61 % 0.00 in
18:58 77.6 °F 63.1 °F 30.13 in South 0.1 mph 2.3 mph 61 % 0.00 in
19:03 77.4 °F 63.8 °F 30.12 in Calm   1.2 mph 63 % 0.00 in
19:08 77.1 °F 63.1 °F 30.13 in SSE 0.1 mph 1.2 mph 62 % 0.00 in
19:13 76.7 °F 62.7 °F 30.13 in Calm   1.2 mph 62 % 0.00 in
19:18 76.2 °F 62.7 °F 30.12 in Calm   1.2 mph 63 % 0.00 in
19:23 76.1 °F 63.0 °F 30.13 in Calm     64 % 0.00 in
19:28 75.9 °F 63.3 °F 30.13 in Calm   1.2 mph 65 % 0.00 in
19:33 75.7 °F 63.1 °F 30.13 in Calm     65 % 0.00 in
19:38 75.4 °F 63.2 °F 30.13 in SSE 0.1 mph 1.2 mph 66 % 0.00 in
19:43 75.1 °F 63.4 °F 30.13 in Calm     67 % 0.00 in
19:48 74.8 °F 62.7 °F 30.13 in Calm     66 % 0.00 in
19:53 74.6 °F 62.9 °F 30.13 in Calm     67 % 0.00 in
19:58 74.3 °F 63.1 °F 30.13 in Calm     68 % 0.00 in
20:03 73.9 °F 62.7 °F 30.12 in Calm     68 % 0.00 in
20:08 73.6 °F 62.8 °F 30.13 in Calm     69 % 0.00 in
20:14 73.2 °F 62.4 °F 30.13 in Calm     69 % 0.00 in
20:19 72.9 °F 62.1 °F 30.13 in Calm     69 % 0.00 in
20:24 72.6 °F 62.3 °F 30.13 in Calm     70 % 0.00 in
20:28 72.4 °F 62.1 °F 30.13 in Calm     70 % 0.00 in
20:33 72.2 °F 62.3 °F 30.13 in Calm     71 % 0.00 in
20:38 72.0 °F 62.1 °F 30.13 in Calm     71 % 0.00 in
20:43 71.8 °F 62.3 °F 30.13 in Calm     72 % 0.00 in
20:48 71.6 °F 62.1 °F 30.13 in Calm     72 % 0.00 in
20:53 71.3 °F 62.2 °F 30.13 in Calm     73 % 0.00 in
20:58 71.1 °F 62.0 °F 30.13 in Calm     73 % 0.00 in
21:03 70.9 °F 61.8 °F 30.14 in Calm     73 % 0.00 in
21:08 70.7 °F 62.0 °F 30.14 in Calm     74 % 0.00 in
21:13 70.5 °F 62.2 °F 30.14 in Calm     75 % 0.00 in
21:18 70.3 °F 62.0 °F 30.14 in Calm     75 % 0.00 in
21:23 70.1 °F 62.6 °F 30.14 in Calm     77 % 0.00 in
21:28 69.9 °F 62.7 °F 30.14 in Calm     78 % 0.00 in
21:33 69.8 °F 62.3 °F 30.14 in Calm     77 % 0.00 in
21:38 69.6 °F 62.1 °F 30.14 in Calm     77 % 0.00 in
21:43 69.4 °F 61.9 °F 30.14 in Calm     77 % 0.00 in
21:48 69.3 °F 62.5 °F 30.14 in Calm     79 % 0.00 in
21:53 69.0 °F 62.9 °F 30.14 in Calm     81 % 0.00 in
21:58 68.8 °F 62.7 °F 30.14 in Calm     81 % 0.00 in
22:03 68.6 °F 62.5 °F 30.13 in Calm     81 % 0.00 in
22:08 68.5 °F 62.4 °F 30.13 in Calm     81 % 0.00 in
22:13 68.3 °F 62.2 °F 30.13 in Calm     81 % 0.00 in
22:18 68.2 °F 62.1 °F 30.13 in Calm     81 % 0.00 in
22:23 68.0 °F 61.9 °F 30.14 in Calm     81 % 0.00 in
22:28 67.9 °F 61.9 °F 30.14 in Calm     81 % 0.00 in
22:33 67.7 °F 61.7 °F 30.14 in Calm     81 % 0.00 in
22:38 67.6 °F 61.6 °F 30.13 in Calm     81 % 0.00 in
22:43 67.6 °F 62.3 °F 30.14 in Calm     83 % 0.00 in
22:49 67.5 °F 62.2 °F 30.13 in Calm     83 % 0.00 in
22:54 67.4 °F 62.1 °F 30.13 in Calm     83 % 0.00 in
22:59 67.3 °F 62.0 °F 30.13 in Calm     83 % 0.00 in
23:04 67.2 °F 61.9 °F 30.13 in Calm     83 % 0.00 in
23:09 67.1 °F 62.1 °F 30.12 in Calm     84 % 0.00 in
23:14 67.0 °F 62.0 °F 30.13 in Calm     84 % 0.00 in
23:19 66.9 °F 61.9 °F 30.13 in Calm     84 % 0.00 in
23:21 66.8 °F 62.1 °F 30.13 in Calm     85 % 0.00 in
23:26 66.7 °F 62.0 °F 30.13 in Calm     85 % 0.00 in
23:31 66.6 °F 61.9 °F 30.12 in Calm     85 % 0.00 in
23:41 66.3 °F 62.0 °F 30.12 in Calm     86 % 0.00 in
23:46 66.2 °F 61.9 °F 30.13 in Calm     86 % 0.00 in
23:51 66.0 °F 61.7 °F 30.12 in Calm     86 % 0.00 in
23:56 65.9 °F 61.6 °F 30.13 in Calm     86 % 0.00 in
Crab Meadow Weather
Compliments of Weather Underground - 3 mb

Script developed by  Jim McMurry - jmcmurry@mwt.net Adapted for the template by  Wim van der Kuil - Leuven-Template.eu

Astronomy: Mercury can get as hot as 800 degrees and can be as cold as 300 degrees below zero.